#timestamp,LO_Frequency,Hit,StdDev 
1508943615.6,286046995.2,N
1508943635.4,286046998.7,N
1508943655.3,286047001.7,N
1508943675.1,286047002.2,N
1508943695.8,286047003.9,N
1508943715.7,286047004.4,N
1508943735.5,286047004.1,N
1508943755.3,286047002.1,N
1508943775.2,286047004.6,N
1508943795.9,286047008.2,Y
1508943815.7,286047004.7,P
1508943835.6,286047007.3,P
1508943855.4,286047005.5,N
1508943875.2,286047003.1,N
1508943895.1,286047002.1,N
1508943896.0,286047002.1,N
1508943915.8,286047001.8,N
1508943935.6,286047005.4,N
1508943955.5,286047003.1,N
1508943975.3,286047005.8,Y
1508943995.2,286047002.7,P
1508944015.9,286047002.1,P
1508944035.7,286047002.9,P
1508944055.6,286047004.7,Y
1508944075.4,286047000.5,P
1508944095.2,286047001.5,N
1508944115.1,286047000.7,N
1508944116.0,286047000.7,N
1508944135.8,286046999.5,N
1508944155.6,286046997.6,N
1508944175.5,286046996.4,N
1508944195.3,286046999.3,N
1508944215.1,286047000.4,N
1508944235.9,286046998.5,N
1508944255.7,286046998.4,N
1508944275.5,286046996.3,N
1508944295.4,286046995.2,N
1508944315.2,286046999.5,N
1508944335.0,286046999.6,N
1508944335.9,286046999.6,N
1508944355.8,286046998.4,N
1508944375.6,286046999.0,N
1508944395.4,286046997.0,N
1508944415.3,286046998.8,N
1508944435.1,286047004.3,N
1508944455.9,286047007.2,Y
1508944475.7,286047005.6,P
1508944495.5,286047005.6,N
1508944515.4,286047001.5,N
1508944535.2,286046999.9,N
1508944555.0,286047002.1,N
1508944555.9,286047002.1,N
1508944575.8,286047000.2,N
1508944595.6,286047005.2,N
1508944615.4,286047006.2,N
1508944635.3,286047003.6,N
1508944655.1,286047001.6,N
1508944656.0,286047001.6,N
1508944675.8,286046998.5,N
1508944695.7,286046999.0,N
1508944715.5,286046995.5,N
1508944735.3,286046996.0,N
1508944755.2,286046995.5,N
1508944775.0,286046996.5,N
1508944775.9,286046996.5,N
1508944795.7,286046999.3,N
1508944815.6,286046998.7,N
1508944835.4,286046997.0,N
1508944855.2,286046994.9,N
1508944875.1,286046997.9,N
1508944876.0,286046997.9,N
1508944895.8,286046996.6,N
1508944915.6,286046998.0,N
1508944935.5,286046996.8,N
1508944955.3,286046999.0,N
1508944975.1,286046999.5,N
1508944995.9,286046999.2,N
1508945015.7,286046995.2,N
1508945035.6,286046996.4,N
1508945055.4,286046991.7,N
1508945075.2,286046996.3,N
1508945095.1,286046997.6,N
1508945096.0,286046997.6,N
1508945115.8,286046998.0,N
1508945135.6,286046996.6,N
1508945155.5,286047000.2,N
1508945175.3,286046999.7,N
1508945195.1,286047001.9,N
1508945215.9,286047002.3,N
1508945235.7,286047003.4,N
1508945255.5,286046999.9,N
1508945275.4,286047001.9,N
1508945295.2,286047000.7,N
1508945315.0,286046999.1,N
1508945315.9,286046999.1,N
1508945335.8,286046995.8,N
1508945355.6,286046996.0,N
1508945375.4,286047000.8,N
1508945395.3,286046999.0,N
1508945415.1,286046998.8,N
1508945435.8,286046997.2,N
1508945455.7,286046997.1,N
1508945475.5,286046997.6,N
1508945495.3,286047001.0,N
1508945515.2,286047001.1,N
1508945535.9,286046998.3,N
1508945555.7,286047000.4,N
1508945575.6,286047005.2,N
1508945595.4,286047004.1,N
1508945615.2,286047003.6,N
1508945635.1,286047001.7,N
1508945636.0,286047001.7,N
1508945655.8,286047004.2,N
1508945675.6,286047006.7,N
1508945695.5,286047005.5,N
1508945715.3,286047004.1,N
1508945735.1,286047003.2,N
1508945755.9,286047002.4,N
1508945775.7,286047002.6,N
1508945795.6,286047003.4,N
1508945815.4,286046998.6,N
1508945835.2,286047000.1,N
1508945855.0,286047002.3,N
1508945856.0,286047002.3,N
1508945875.8,286046998.2,N
1508945895.6,286046999.6,N
1508945915.5,286046995.9,N
1508945935.3,286046995.4,N
1508945955.1,286046993.5,N
1508945975.9,286046993.9,N
1508945995.7,286046995.4,N
1508946015.5,286046998.5,N
1508946035.4,286047000.4,N
1508946055.2,286047000.6,N
1508946075.0,286046999.2,N
1508946075.9,286046999.2,N
1508946095.8,286046997.1,N
1508946115.6,286047000.6,N
1508946135.4,286046998.4,N
1508946155.3,286046996.4,N
1508946175.1,286046993.4,N
1508946176.0,286046993.4,N
1508946195.8,286046995.1,N
1508946215.7,286046996.5,N
1508946235.5,286046998.2,N
1508946255.3,286047001.2,N
1508946275.2,286046999.1,N
1508946295.9,286047002.7,N
1508946315.7,286046993.4,N
1508946335.6,286046991.3,N
1508946355.4,286046993.7,N
1508946375.2,286046996.3,N
1508946395.1,286046993.6,N
1508946396.0,286046993.6,N
1508946415.8,286046990.9,Y
1508946435.7,286046994.2,P
1508946455.5,286046995.8,P
1508946475.3,286046998.0,N
1508946495.2,286046996.4,N
1508946515.9,286046990.5,Y
1508946535.7,286046997.8,P
1508946555.6,286046993.5,P
1508946575.4,286046996.2,N
1508946595.2,286046999.7,N
1508946615.1,286047004.0,N
1508946616.0,286047004.0,N
1508946635.8,286047004.9,N
1508946655.6,286047005.3,N
1508946675.5,286047003.0,N
1508946695.3,286047005.6,N
1508946715.1,286047003.1,N
1508946735.9,286047005.8,N
1508946755.7,286047000.9,N
1508946775.5,286046999.9,N
1508946795.4,286047001.6,N
1508946815.2,286047000.1,N
1508946835.0,286046999.4,N
1508946835.9,286046999.4,N
1508946855.8,286046999.8,N
1508946875.6,286047000.0,N
1508946895.4,286047002.7,N
1508946915.3,286046998.3,N
1508946935.1,286047002.1,N
1508946936.0,286047002.1,N
1508946955.8,286047002.0,N
1508946975.7,286047005.6,N
1508946995.5,286047001.8,N
1508947015.3,286046999.4,N
1508947035.2,286046997.7,N
1508947055.9,286046997.1,N
1508947075.7,286046996.8,N
1508947095.6,286046999.6,N
1508947115.4,286046998.5,N
1508947135.2,286046996.9,N
1508947155.1,286046993.4,N
1508947156.0,286046993.4,N
1508947175.8,286046991.9,N
1508947195.6,286046997.9,N
